Location: D�derode
(51.8092°N, 10.1065°E)
Time: 21:31:13
(UTC+00:00)

CZ-4B R/B - Pass Details

Date: 01 December 2020
Orbit: 809 x 881 km, 99.1° (Epoch: 24 January)

Event Time Altitude Azimuth Distance (km) Brightness Sun altitude
Rises 16:03:11 0° 149° (SSE) 3,335 6.3 -7.6°
Reaches altitude 10° 16:05:33 10° 146° (SE) 2,401 5.5 -7.9°
Maximum altitude 16:10:45 60° 68° (ENE) 930 3.2 -8.6°
Drops below altitude 10° 16:15:57 10° 350° (N) 2,409 5.4 -9.4°
Sets 16:18:20 0° 347° (NNW) 3,347 6.2 -9.7°
